GFSNIL_925_spd_000.txt.gz
Wind_Speed
11 9 6 4 5 7 9 12 15 18 21 23 24 26 27 29 31 31 32 34 34 33
9 7 5 5 6 9 12 15 18 20 22 23 24 25 26 29 30 31 32 33 34 35
9 7 6 6 9 12 15 17 20 22 23 25 26 27 28 29 30 32 33 33 34 35
9 7 6 8 11 15 17 20 22 23 24 26 28 27 28 29 31 31 33 35 36 37
6 5 8 12 15 17 20 21 23 24 26 28 28 28 28 30 31 31 33 34 36 38
8 9 11 14 18 20 21 22 24 25 27 28 28 29 29 31 32 33 35 36 36 38
9 10 13 16 19 20 21 23 25 26 28 29 30 30 30 31 33 34 33 34 35 37
9 11 15 18 21 22 23 25 26 28 29 29 30 30 29 29 31 31 32 32 34 35
8 13 17 19 22 24 25 26 27 29 30 31 31 30 28 30 30 31 32 32 34 34
11 15 18 21 23 25 27 29 30 30 29 31 32 31 31 31 31 31 31 32 32 32
13 17 20 22 24 26 27 28 30 30 30 32 33 33 33 33 33 33 34 34 34 34
15 18 21 23 24 26 27 28 29 30 31 32 34 33 34 34 32 30 31 32 33 34
15 18 21 23 25 26 27 29 29 32 31 31 33 36 34 33 30 28 27 28 30 32
15 18 20 22 24 27 27 28 28 29 30 31 31 33 33 34 33 28 26 25 25 26

GFSNIL_925_spd_003.txt.gz
Wind_Speed
21 17 14 11 8 7 10 10 11 13 15 18 20 22 24 26 27 28 29 29 30 31
18 16 14 9 9 8 9 11 14 15 17 20 22 23 24 26 28 28 29 29 30 32
16 14 12 9 7 9 10 13 16 19 21 23 23 24 26 26 28 29 29 30 31 33
15 12 7 6 8 10 12 16 19 22 24 24 25 26 27 29 31 31 31 31 32 34
13 8 7 8 12 13 16 19 22 24 26 27 28 28 30 32 32 32 32 32 32 33
10 8 14 14 14 16 19 22 24 26 27 29 30 30 31 32 33 33 33 33 33 34
11 13 13 13 15 18 20 23 25 26 28 29 30 31 31 32 32 33 33 31 31 33
15 14 14 14 17 20 22 23 25 27 29 29 29 30 29 29 31 32 31 31 31 32
12 12 14 16 19 21 23 24 26 27 29 29 29 29 30 29 31 30 31 30 32 34
10 12 15 18 21 22 24 25 27 28 28 29 30 30 28 29 31 30 30 31 32 32
11 13 17 19 22 23 24 25 26 27 27 29 29 30 31 31 31 30 32 33 35 35
11 15 18 21 22 24 24 25 26 26 27 29 30 32 34 33 31 29 30 31 32 33
13 16 19 21 23 23 24 25 25 27 28 27 29 33 35 34 31 29 28 29 31 33
14 17 18 21 22 24 24 24 24 24 26 28 29 30 31 25 23 23 25 25 24 24

GFSNIL_925_spd_006.txt.gz
Wind_Speed
30 23 20 18 12 7 4 4 5 7 11 13 15 20 22 24 24 24 26 28 28 28
22 20 13 8 9 4 3 5 4 8 11 18 19 21 22 24 25 25 27 28 29 30
8 8 7 5 3 3 6 11 11 13 17 19 21 23 24 25 25 26 28 28 28 28
6 7 7 6 5 5 9 13 18 19 19 22 24 25 26 27 28 29 30 31 32 33
7 8 8 9 5 7 12 19 18 20 22 24 26 26 27 28 29 29 29 30 30 31
6 8 10 8 9 14 18 16 20 22 24 26 26 27 28 29 29 30 31 31 30 31
10 12 11 11 8 16 17 19 21 24 26 27 28 27 27 28 30 30 29 28 28 28
6 10 13 10 12 14 18 22 24 25 27 26 26 26 25 24 24 24 27 28 29 30
12 11 8 11 13 18 22 22 24 25 26 26 25 24 27 28 23 23 25 28 30 34
11 10 10 11 17 20 22 22 23 24 24 25 25 25 26 27 27 27 29 31 31 32
8 8 11 15 18 20 21 22 23 23 23 24 23 29 32 35 33 30 32 33 33 33
5 9 14 17 17 19 21 22 22 20 22 25 29 29 32 33 32 31 33 35 35 34
9 13 15 15 18 20 20 22 22 26 21 23 28 31 32 33 31 30 25 26 25 28
11 14 16 17 19 19 21 23 25 18 22 26 26 29 29 30 30 28 31 28 28 26

GFSNIL_925_spd_009.txt.gz
Wind_Speed
31 38 39 37 21 15 15 12 8 6 7 7 12 16 22 27 31 31 31 31 30 30
21 23 23 15 16 17 14 11 3 4 9 13 19 18 25 25 30 31 32 31 30 31
5 8 13 16 18 16 11 7 2 9 20 19 18 21 26 30 30 30 31 31 30 29
8 10 12 13 11 4 1 4 9 13 14 19 23 27 28 30 30 30 31 32 32 32
10 10 9 8 7 4 3 2 8 14 16 23 24 26 27 29 30 32 31 32 30 32
9 8 9 9 4 4 3 8 11 19 21 22 25 26 29 31 32 33 32 33 33 31
8 8 5 2 3 4 11 14 15 18 24 25 26 28 28 28 30 29 24 23 23 26
9 6 6 7 5 6 11 17 21 22 23 27 24 25 25 22 23 23 25 28 29 29
10 7 7 5 9 13 17 21 19 22 21 23 25 21 19 20 27 29 28 28 30 32
9 3 7 11 11 15 15 17 19 21 24 25 17 20 27 31 31 29 29 31 31 32
4 10 4 8 11 14 14 17 23 25 19 20 26 28 32 30 30 30 33 34 34 33
5 4 7 10 11 14 18 22 21 17 26 24 24 29 30 30 29 29 31 32 32 35
7 9 9 9 13 17 16 19 21 26 15 25 25 28 28 27 25 26 27 29 30 32
8 9 10 14 14 17 18 21 18 19 26 24 24 28 26 26 27 27 29 28 28 28

GFSNIL_925_spd_012.txt.gz
Wind_Speed
29 25 26 27 30 27 24 20 19 21 12 4 5 13 17 19 22 20 20 25 28 30
22 23 22 21 16 17 26 22 16 12 10 11 15 21 18 15 18 22 26 28 30 30
21 16 13 7 17 25 20 14 7 5 15 16 6 9 12 19 24 26 28 29 30 31
10 9 13 14 18 14 9 2 10 14 6 8 11 13 19 23 24 24 25 26 28 30
12 15 16 14 11 7 2 2 2 6 9 11 15 17 18 21 22 26 29 30 29 30
14 13 13 13 10 6 4 3 4 8 11 14 17 20 21 24 25 26 28 29 26 25
5 6 10 9 6 3 2 6 9 11 14 17 18 21 21 21 21 21 19 21 25 28
7 6 5 6 5 8 11 10 14 14 15 17 17 19 17 18 17 22 28 33 33 33
2 1 3 10 6 10 12 12 11 13 14 18 19 16 14 20 25 29 29 28 27 29
5 6 7 7 9 11 9 9 12 16 18 17 14 20 22 21 26 27 27 29 30 30
8 9 8 5 5 7 10 14 16 16 16 20 20 19 25 25 27 28 30 30 30 29
7 4 5 7 9 11 13 14 16 18 17 16 24 24 24 25 26 25 27 28 29 28
4 5 7 9 10 11 14 15 17 12 19 24 26 26 23 22 24 24 26 28 28 28
8 10 10 10 12 14 16 14 14 19 23 24 22 24 23 22 24 24 27 27 28 27

GFSNIL_925_spd_015.txt.gz
Wind_Speed
28 30 29 28 27 25 19 8 16 24 20 13 8 8 15 18 23 22 21 16 17 19
30 31 30 26 20 14 8 17 19 14 10 10 11 15 12 13 11 12 16 18 19 20
33 30 26 21 13 8 18 19 10 3 7 16 19 12 7 7 12 16 18 18 18 19
32 25 17 13 11 17 16 6 4 10 16 8 8 9 14 15 15 16 17 19 22 24
24 16 10 12 13 12 8 5 8 5 3 6 11 13 13 15 16 18 21 22 22 25
19 12 11 9 8 6 2 4 4 6 8 10 10 12 14 16 17 18 19 20 21 22
15 10 7 3 2 4 5 10 13 12 11 11 11 13 14 17 19 17 17 19 23 27
1 4 8 4 9 14 13 9 14 12 11 11 14 18 18 16 15 19 24 28 31 29
2 2 7 9 5 6 10 14 10 9 14 17 15 12 13 19 20 23 27 29 28 29
8 10 11 14 15 12 10 8 11 12 13 13 16 17 16 18 24 25 27 27 27 27
10 9 10 8 8 7 8 10 11 13 15 13 16 20 24 23 24 25 27 27 27 26
10 9 9 7 9 9 11 12 14 13 12 18 24 25 22 21 23 26 28 27 27 26
5 6 8 10 9 10 13 13 10 14 18 22 24 22 22 21 23 22 22 24 24 25
7 9 9 10 12 13 12 12 14 18 20 22 22 22 24 21 21 23 24 25 26 25

GFSNIL_925_spd_018.txt.gz
Wind_Speed
22 29 34 35 36 32 24 17 8 7 15 15 12 9 8 10 10 7 5 6 8 7
25 29 31 31 31 28 15 6 13 12 9 7 6 11 11 10 3 1 4 7 9 12
31 33 32 31 29 18 10 15 11 4 4 10 12 13 11 6 7 9 11 10 10 10
32 32 31 26 20 9 12 9 2 6 8 15 12 5 7 10 11 11 11 12 14 16
30 30 23 10 3 8 2 5 9 9 10 9 10 10 9 10 12 13 15 17 18 19
28 24 14 5 3 3 4 7 10 11 12 13 13 13 11 12 13 15 18 19 19 19
17 12 8 10 13 12 12 16 15 13 14 11 10 11 13 15 15 15 15 17 21 24
5 4 4 6 10 13 9 9 14 13 10 11 14 15 13 13 16 20 25 27 28 29
10 10 8 8 9 12 15 17 15 11 13 14 16 16 18 18 19 22 25 26 25 27
10 12 11 12 13 13 11 9 11 13 15 16 15 16 19 20 23 24 25 26 27 26
6 7 8 10 10 10 11 13 15 15 15 14 19 22 23 20 21 23 24 26 26 25
10 9 10 12 13 12 13 14 15 12 15 19 23 23 22 20 23 25 26 24 22 23
11 12 13 13 12 12 14 13 12 16 18 19 23 22 21 21 24 23 21 21 21 22
12 13 12 13 13 13 13 13 17 19 18 21 23 22 23 22 21 23 23 21 22 23

GFSNIL_925_spd_021.txt.gz
Wind_Speed
19 22 25 26 30 28 25 20 13 3 4 7 9 8 5 7 6 3 3 2 3 3
19 25 24 26 27 26 23 11 3 4 5 3 2 5 6 7 9 2 4 6 5 3
20 20 23 26 24 20 11 2 3 2 5 5 6 5 5 2 1 4 6 6 10 11
21 22 23 20 17 11 1 3 6 6 6 8 8 8 8 7 6 6 6 6 8 10
21 20 16 9 6 4 5 8 7 9 10 11 10 9 9 9 6 7 9 11 13 15
13 11 7 5 5 6 5 9 14 16 12 12 10 10 10 10 11 12 13 14 14 14
8 4 5 4 6 7 7 8 7 10 12 11 10 11 11 13 13 14 15 16 17 18
5 6 6 5 6 7 8 9 12 16 13 12 13 9 13 15 16 18 19 20 20 20
9 9 11 11 9 11 13 12 11 9 11 12 12 15 16 18 19 21 21 21 21 21
10 8 10 10 11 11 10 9 10 11 12 13 12 17 18 18 18 18 19 21 22 22
12 11 10 11 12 12 10 11 12 13 11 13 16 19 20 19 18 18 20 21 21 21
11 11 12 12 12 11 12 13 12 12 14 16 17 19 20 17 18 20 20 18 17 19
10 11 11 12 12 11 11 12 12 15 14 15 17 19 17 18 19 19 19 20 19 19
11 11 10 10 10 11 12 12 15 17 16 15 16 17 19 18 18 18 20 21 21 17

GFSNIL_925_spd_024.txt.gz
Wind_Speed
15 16 18 20 23 26 27 24 20 12 8 6 4 3 1 2 4 5 3 4 6 6
14 15 18 21 22 24 22 18 12 8 7 6 6 6 5 6 4 2 1 0 0 2
15 17 18 20 21 18 15 9 6 6 8 8 9 9 9 8 7 6 6 5 7 9
17 17 17 18 16 12 6 6 7 8 9 12 10 8 8 8 10 11 11 12 13 14
18 17 15 14 11 8 4 4 5 9 12 9 11 11 12 12 11 11 13 15 16 18
18 15 13 11 7 5 7 9 10 9 11 13 11 11 10 12 14 15 17 17 18 18
14 11 10 8 8 10 10 11 12 13 14 15 13 13 12 14 16 18 18 18 18 19
11 11 8 12 11 12 14 16 15 15 13 12 13 13 13 16 18 20 20 20 20 20
8 7 7 10 11 13 14 15 14 14 15 16 16 14 15 17 19 20 21 20 20 20
10 10 9 10 13 15 16 16 15 15 16 16 15 15 18 18 20 21 20 21 21 23
11 10 11 13 14 16 15 16 16 16 15 16 17 17 16 20 20 20 21 21 23 22
13 13 13 14 15 15 15 16 15 15 16 17 18 17 18 18 20 21 22 22 20 20
12 13 14 14 14 14 15 15 15 16 17 17 18 17 17 19 20 20 20 20 20 20
12 13 13 13 13 14 15 15 14 16 16 15 14 18 16 18 19 19 20 22 22 19

GFSNIL_925_spd_027.txt.gz
Wind_Speed
16 17 18 19 21 22 23 25 22 19 14 12 8 8 10 9 10 10 10 8 7 5
17 17 19 20 22 23 23 22 15 10 7 9 9 9 10 13 13 9 8 8 7 6
18 19 21 22 22 22 19 11 10 8 9 11 15 16 11 10 10 12 13 13 13 13
20 20 19 20 19 18 12 8 9 11 10 11 11 11 11 12 13 12 14 14 16 18
19 19 18 14 12 14 13 13 13 13 14 11 13 14 14 16 15 16 18 19 20 22
19 17 13 15 14 12 14 15 15 12 13 17 19 19 18 19 19 20 23 24 23 22
16 15 13 9 13 13 13 15 15 16 18 19 18 19 19 16 17 22 23 23 23 23
12 12 10 10 10 13 14 16 19 20 20 19 19 19 10 12 19 23 25 25 25 24
11 12 12 13 14 15 18 20 21 20 20 20 20 15 15 15 19 23 25 25 25 25
13 13 13 14 16 17 19 21 20 20 20 19 20 13 17 21 21 24 24 25 25 25
12 14 15 16 17 19 20 20 20 20 19 20 20 18 20 19 22 22 24 24 25 25
14 15 17 17 18 18 19 19 19 18 19 21 21 21 16 21 22 23 24 24 22 22
16 15 17 16 17 17 18 18 17 14 20 20 21 18 19 17 20 22 23 22 22 23
17 16 15 14 16 18 18 18 10 16 16 19 17 18 19 15 16 22 24 23 23 22

GFSNIL_925_spd_030.txt.gz
Wind_Speed
14 14 14 16 14 15 17 18 12 12 15 14 11 11 12 12 13 13 12 12 10 11
15 16 16 16 16 16 15 10 11 15 14 14 14 16 15 14 14 13 12 11 13 14
19 17 19 18 14 9 12 10 11 16 15 17 17 14 12 12 12 12 14 14 14 16
19 18 17 13 15 14 15 14 15 15 15 16 18 15 15 15 16 16 15 16 17 17
17 18 17 17 15 15 14 14 15 15 14 14 17 18 19 18 18 19 15 17 19 21
17 12 13 13 13 16 17 15 14 16 16 18 19 19 19 20 18 11 17 21 25 25
10 11 11 13 13 14 13 13 15 16 18 20 21 21 18 13 15 16 18 21 24 27
7 9 10 15 16 16 15 16 17 19 19 20 20 13 14 15 14 16 20 23 24 26
11 11 11 14 15 16 16 17 18 18 19 19 18 14 15 17 20 19 20 24 26 26
8 7 12 16 17 17 16 16 17 18 18 15 17 15 20 20 23 20 22 23 25 25
8 12 12 15 16 14 15 17 16 17 11 15 17 22 25 26 22 23 21 22 26 25
12 9 11 14 14 13 16 17 16 11 13 16 20 24 22 22 23 19 20 23 24 23
17 17 8 11 12 14 16 15 13 11 16 16 20 20 21 21 18 19 20 22 23 24
10 17 9 9 12 15 16 12 11 14 18 20 18 20 20 17 14 17 20 22 23 25

GFSNIL_925_spd_033.txt.gz
Wind_Speed
14 15 12 12 16 11 7 9 10 13 17 16 13 14 15 15 13 14 12 11 11 10
13 14 16 14 7 7 9 10 16 15 11 13 19 15 13 13 16 15 14 11 13 14
17 17 12 10 12 13 15 14 13 14 12 17 16 15 15 15 15 17 16 16 16 17
15 12 9 10 12 13 16 13 14 16 15 16 16 16 17 18 19 17 16 10 9 13
16 10 11 10 12 16 19 17 17 16 16 17 17 17 18 15 13 5 6 10 14 20
18 10 10 9 10 12 16 16 15 15 15 15 16 17 16 9 9 11 14 18 20 21
14 12 8 6 9 12 12 13 12 17 16 16 18 13 11 14 15 16 18 20 22 24
20 11 5 7 8 11 10 10 12 15 16 15 10 11 13 15 18 21 23 24 25 22
31 12 10 9 12 10 10 10 8 11 11 7 9 10 16 21 21 23 22 24 23 23
15 9 11 10 12 10 9 9 9 10 5 7 11 14 21 21 21 21 23 22 22 27
6 10 14 16 11 4 6 10 12 3 5 10 15 19 20 19 22 21 21 21 22 25
21 14 11 10 6 10 10 11 0 4 9 14 18 18 20 22 19 21 19 19 21 24
15 6 5 7 10 5 9 1 3 7 12 17 18 18 19 16 18 17 19 20 22 21
16 10 8 6 6 7 5 5 7 12 15 17 16 16 16 14 17 20 20 19 21 23

GFSNIL_925_spd_036.txt.gz
Wind_Speed
6 7 8 9 7 3 5 6 11 14 13 12 12 12 11 11 12 12 11 11 9 11
8 8 8 5 5 7 9 12 10 10 11 11 12 16 14 13 15 16 17 17 15 14
7 7 7 7 6 6 8 8 9 10 13 12 16 16 15 16 17 20 20 17 15 10
8 11 11 11 8 8 12 12 12 12 11 11 13 14 14 15 15 13 8 5 8 11
14 16 16 16 12 8 10 10 9 9 10 10 12 10 9 9 4 7 9 12 15 18
18 19 19 17 12 9 10 10 9 6 9 11 8 8 4 4 5 7 10 14 17 20
19 21 19 16 13 12 11 10 9 5 4 8 9 6 5 7 11 16 18 18 18 19
23 19 17 19 14 14 14 9 9 7 4 8 7 6 6 12 18 19 17 16 17 16
25 20 15 16 19 15 11 15 8 3 8 7 5 5 13 17 17 16 17 19 18 19
19 13 8 12 13 19 18 14 4 8 5 2 6 9 12 13 15 17 16 19 20 21
13 15 15 15 9 6 4 9 13 6 1 5 8 11 12 14 14 13 16 17 17 20
17 20 19 12 10 16 14 12 6 3 3 8 10 10 12 14 15 16 18 20 22 23
17 17 15 12 13 13 6 3 4 3 6 7 9 12 11 14 19 22 19 18 20 20
14 11 11 10 6 3 2 4 2 6 6 7 11 13 12 15 19 19 19 19 20 22

GFSNIL_925_spd_039.txt.gz
Wind_Speed
3 5 9 10 8 5 5 7 10 11 10 9 9 9 11 12 11 11 12 14 14 15
7 10 11 10 7 8 9 9 10 10 10 10 10 12 12 9 10 12 13 15 17 17
10 10 10 12 15 15 11 11 11 12 11 9 8 8 10 11 12 13 13 12 10 7
15 15 14 17 17 16 14 13 11 11 10 8 7 7 9 11 10 9 5 4 6 9
16 15 17 19 20 20 16 12 14 13 13 13 10 11 8 9 5 5 7 10 14 17
21 19 20 20 21 20 16 14 14 14 14 13 10 9 7 5 6 8 11 15 17 16
20 20 20 18 17 18 17 18 18 17 13 15 9 7 6 6 9 15 17 15 14 16
16 18 21 20 21 17 18 16 11 12 18 14 7 8 5 10 15 17 17 16 16 18
16 15 15 17 16 18 16 13 20 9 5 12 10 4 10 14 16 17 17 19 19 21
14 15 18 21 20 20 20 14 2 4 10 8 4 7 11 12 14 15 16 18 19 19
16 19 23 21 17 18 10 11 8 11 5 2 5 8 10 12 13 15 17 20 20 20
17 19 18 14 16 15 15 10 7 5 1 5 8 8 9 12 15 19 20 17 20 19
14 15 13 13 11 12 9 5 5 2 3 5 6 8 7 11 16 18 17 19 20 18
11 14 14 13 7 1 3 3 4 2 4 4 6 7 8 12 14 17 19 19 19 21

GFSNIL_925_spd_042.txt.gz
Wind_Speed
6 10 11 10 11 9 10 11 11 13 15 15 12 12 13 14 11 12 12 15 15 17
9 11 12 12 14 14 16 18 17 16 15 15 15 14 15 14 11 13 13 14 16 17
13 14 14 14 17 18 20 20 17 15 14 15 15 14 14 13 13 14 14 12 9 7
16 16 16 18 21 22 22 20 17 14 14 12 12 11 12 13 11 11 11 8 9 11
19 19 20 20 23 22 21 21 18 16 14 13 13 13 13 10 11 8 8 10 14 18
16 16 15 17 18 19 21 21 20 18 15 13 10 13 10 11 7 7 11 14 18 19
10 13 17 20 20 21 23 21 18 17 16 12 11 12 7 7 8 12 15 17 18 19
12 14 17 20 23 24 21 17 15 15 16 9 1 7 10 9 13 16 19 20 20 21
13 15 18 20 22 22 18 17 14 9 3 1 9 6 6 11 15 17 18 20 23 24
14 16 18 20 20 15 16 10 8 6 6 8 1 4 9 13 14 16 18 21 24 23
15 17 18 20 18 14 11 13 10 10 5 1 3 7 11 12 13 17 21 21 20 20
15 17 19 19 19 16 13 11 9 4 3 3 5 7 8 10 15 18 19 19 20 18
15 15 18 21 20 18 13 6 4 3 3 5 7 7 7 9 13 16 19 21 20 18
14 16 19 19 15 8 0 4 4 4 5 7 7 8 8 9 13 15 18 21 19 19

GFSNIL_925_spd_045.txt.gz
Wind_Speed
5 8 8 9 9 10 12 13 15 16 16 15 14 14 14 12 12 12 11 11 11 12
6 8 9 12 14 14 15 17 17 17 17 17 16 16 15 14 15 14 14 13 14 12
9 11 13 15 17 19 23 24 22 21 18 17 17 16 16 17 14 16 14 11 8 8
12 12 14 16 16 17 19 19 20 21 21 18 14 14 14 12 13 9 9 7 8 10
13 14 12 11 15 17 19 21 22 19 15 14 12 10 9 10 6 8 6 7 11 15
10 9 10 13 15 19 21 22 20 15 12 11 11 13 9 8 5 6 6 11 14 17
8 8 11 12 17 20 21 19 15 12 9 8 12 9 3 3 4 6 9 13 15 17
9 11 12 15 19 21 19 13 13 10 9 8 2 1 4 3 5 9 13 15 16 17
12 13 14 16 18 16 13 10 10 12 5 2 4 4 3 5 8 10 12 16 18 19
14 14 14 14 14 14 12 10 9 9 5 6 1 2 6 9 7 10 12 15 17 18
14 14 12 12 14 14 13 11 12 9 7 4 2 5 8 11 8 10 13 15 16 17
13 11 10 12 15 15 13 13 11 7 5 4 3 6 8 8 9 11 15 15 16 17
10 9 11 15 14 14 12 9 4 6 4 5 6 7 8 8 9 13 16 16 17 15
10 13 15 14 14 15 8 5 6 5 5 7 8 8 8 8 9 13 16 17 18 17

GFSNIL_925_spd_048.txt.gz
Wind_Speed
1 2 5 7 9 11 13 15 16 16 16 17 18 18 16 16 17 17 16 14 14 14
2 4 7 9 11 12 14 15 17 18 18 19 20 19 18 18 18 18 16 15 13 13
4 6 7 8 9 11 12 14 16 18 20 21 21 19 19 19 18 17 15 12 12 13
4 6 7 8 8 10 13 17 19 21 21 21 21 19 20 19 17 17 14 11 11 13
6 6 7 8 10 13 16 18 19 19 18 19 18 17 15 16 14 10 12 10 11 15
8 7 8 10 12 14 17 18 17 16 16 16 15 13 12 11 7 7 10 10 13 18
9 8 10 12 13 15 17 16 15 15 14 11 11 10 10 5 6 9 10 12 16 18
9 10 12 13 14 15 16 15 14 10 9 8 4 4 5 6 7 10 13 15 16 16
12 13 14 14 15 15 17 16 13 12 10 8 7 8 5 5 9 12 14 14 16 16
12 14 15 15 15 16 17 16 15 14 12 10 7 7 6 8 10 12 12 13 15 16
12 14 14 14 15 17 17 15 15 13 11 9 6 7 7 9 9 11 12 13 15 15
12 14 14 14 16 18 16 17 15 10 9 8 6 8 7 8 10 11 13 14 14 15
13 13 14 16 17 16 16 15 10 6 6 7 7 9 8 8 9 11 13 15 14 14
12 13 14 15 14 14 13 9 7 7 7 7 9 8 10 8 7 10 13 15 15 15

GFSNIL_925_spd_051.txt.gz
Wind_Speed
2 3 5 7 10 12 13 13 14 16 17 20 21 21 19 20 21 17 17 19 17 15
1 3 8 8 11 12 12 14 15 16 18 20 21 22 21 19 21 19 18 17 13 13
4 8 8 9 11 11 11 12 14 16 18 20 21 22 22 18 20 18 17 18 14 12
4 7 9 10 9 10 11 13 16 17 18 19 19 20 20 17 18 18 18 19 12 12
7 8 10 10 10 11 13 14 16 18 18 19 20 19 16 17 16 16 14 10 10 11
8 10 10 10 11 12 13 15 17 17 18 20 17 15 14 14 13 12 7 9 10 13
9 9 10 11 13 13 14 16 17 18 17 16 15 13 11 8 6 8 10 9 12 16
8 10 12 14 14 15 15 17 18 17 17 11 12 11 6 8 9 9 11 14 15 15
10 12 14 15 16 17 17 18 18 16 15 15 13 10 10 8 10 12 14 15 14 15
11 13 15 17 17 17 18 18 16 15 15 16 17 10 8 7 8 13 13 13 14 15
12 15 17 17 17 17 17 17 17 17 15 16 12 7 6 7 10 12 12 12 14 15
14 16 17 17 17 17 18 16 15 17 14 13 6 9 8 7 10 11 11 13 14 13
15 16 17 16 17 17 16 16 10 11 9 6 6 8 9 9 9 10 11 12 13 12
16 17 16 16 14 15 15 11 8 13 12 11 8 8 10 11 8 10 10 12 13 11

GFSNIL_925_spd_054.txt.gz
Wind_Speed
8 4 3 1 4 6 9 10 11 12 12 15 18 19 20 21 20 17 16 16 18 17
6 5 5 4 4 6 7 8 11 13 14 16 18 19 20 21 19 14 13 13 15 14
5 3 5 4 6 6 6 8 10 12 15 17 18 18 20 22 15 15 16 15 14 16
3 3 5 5 7 6 7 9 11 14 16 17 18 19 19 15 14 13 11 13 12 8
7 6 6 7 7 6 7 10 11 14 16 16 16 12 17 17 16 15 13 14 9 8
5 3 7 7 7 8 10 11 13 15 17 17 15 18 17 14 13 14 9 9 9 9
3 4 6 8 10 11 11 12 14 18 18 11 11 11 13 11 10 9 10 11 10 13
3 4 7 10 12 13 14 15 17 18 11 13 13 14 10 11 7 9 11 13 13 11
5 6 8 11 14 16 15 15 17 13 11 12 14 18 15 15 10 7 12 15 12 12
7 9 10 13 15 16 16 17 15 11 13 17 15 17 17 10 7 6 11 14 11 12
9 11 13 14 15 16 16 16 16 11 13 15 15 14 12 7 7 7 12 11 10 13
10 12 14 16 15 15 17 20 19 12 8 12 12 10 9 8 6 8 11 12 11 14
11 13 15 16 14 14 16 18 11 7 11 10 7 9 10 10 7 10 11 12 12 15
12 15 15 16 14 16 15 14 11 12 13 13 14 12 11 12 12 12 11 10 11 12

GFSNIL_925_spd_057.txt.gz
Wind_Speed
13 12 10 6 3 3 2 3 4 7 9 12 13 15 17 19 19 20 14 10 12 10
10 7 3 4 1 5 6 4 6 8 10 12 15 16 16 18 20 13 11 14 12 13
10 2 3 6 3 5 5 5 6 8 10 12 13 14 13 11 8 10 8 6 6 8
5 8 6 4 5 6 6 5 6 8 9 12 12 13 11 13 16 16 12 10 10 7
7 6 7 7 4 5 4 4 6 8 10 13 16 15 14 16 13 11 14 12 8 9
6 4 1 1 0 3 7 9 10 11 15 17 12 11 14 16 10 12 10 10 10 10
2 2 1 3 6 9 9 11 13 15 18 10 8 11 12 14 12 11 10 10 9 11
7 2 3 6 9 11 14 17 18 16 12 10 10 12 12 12 10 10 7 8 7 6
3 4 7 9 10 13 15 15 15 17 12 11 12 13 14 12 14 15 10 13 10 8
6 7 8 13 14 15 14 12 12 11 13 12 9 13 15 15 15 7 8 11 7 5
7 13 13 13 15 14 13 16 19 18 14 8 10 13 15 15 9 8 9 8 8 8
13 10 12 14 16 17 16 19 18 12 7 9 14 14 15 11 10 10 11 12 14 11
10 12 12 15 15 18 18 19 18 15 12 12 12 11 11 13 13 14 13 14 11 10
10 12 13 13 15 17 18 20 12 10 11 13 13 16 15 16 17 17 15 13 13 13

GFSNIL_925_spd_060.txt.gz
Wind_Speed
23 21 17 14 9 7 8 4 7 4 1 5 8 11 13 12 13 15 14 11 10 12
19 17 16 11 8 2 9 1 3 4 8 12 12 15 16 15 15 12 10 10 11 12
18 14 11 6 1 2 6 5 6 8 10 11 12 16 15 15 12 12 14 15 15 12
12 10 3 2 2 5 6 7 7 9 10 12 13 15 15 14 14 16 17 14 13 11
11 7 5 5 1 6 5 5 8 9 12 13 15 15 14 12 14 16 13 13 8 8
9 9 8 1 3 1 4 8 10 12 14 16 17 17 13 13 15 15 14 12 12 11
15 10 6 5 2 3 6 10 15 18 20 18 18 13 13 14 14 16 14 13 14 12
16 11 6 3 7 9 12 15 15 16 17 17 15 12 13 13 15 14 16 13 11 9
12 7 6 6 11 16 15 14 13 14 13 13 14 14 13 15 14 15 17 20 12 11
10 8 7 15 11 13 13 10 12 15 15 16 16 14 14 14 15 17 13 10 11 9
3 4 6 9 12 12 13 15 17 18 19 15 13 13 14 16 18 14 11 10 9 10
3 4 9 11 11 13 13 15 19 20 20 17 15 15 16 15 14 14 13 11 12 15
7 11 10 11 13 11 12 15 18 19 20 17 17 18 18 15 16 17 18 15 15 14
10 10 12 13 13 15 18 17 19 16 15 17 18 19 17 17 19 20 20 20 19 16

GFSNIL_925_spd_063.txt.gz
Wind_Speed
24 24 22 23 22 19 14 13 11 12 9 7 5 6 10 12 11 10 9 7 8 11
22 22 23 20 16 13 6 9 10 6 10 6 4 8 10 11 10 7 8 10 13 14
26 24 23 17 12 4 6 9 12 11 8 6 8 10 12 11 10 11 12 15 15 15
25 24 20 13 8 5 8 15 12 8 7 9 10 10 12 13 13 12 14 15 14 13
28 22 15 6 7 12 12 11 7 8 13 12 11 13 15 15 13 12 15 17 14 12
17 10 10 11 10 10 7 5 7 11 12 12 15 15 16 15 12 14 16 16 16 15
12 14 15 11 10 6 4 6 8 10 12 14 16 16 15 13 14 15 17 17 16 16
18 16 14 10 5 4 4 6 8 10 12 14 15 14 13 14 15 16 16 17 18 17
20 15 10 4 3 4 6 8 11 12 12 14 14 14 15 16 16 17 18 20 20 20
13 8 3 3 2 7 10 11 12 14 15 16 17 16 18 16 16 18 20 21 18 14
6 3 2 4 6 7 9 11 13 15 17 20 21 18 16 16 18 19 20 19 16 15
2 3 5 8 8 9 11 12 13 17 20 22 24 20 17 17 20 20 19 18 17 17
2 7 10 10 11 12 12 14 17 17 19 21 22 19 18 18 21 21 21 21 21 20
8 9 10 11 13 14 16 18 21 22 21 21 20 23 23 23 22 24 25 24 24 22

GFSNIL_925_spd_066.txt.gz
Wind_Speed
24 21 20 22 26 24 23 20 13 9 8 7 7 6 6 6 7 7 5 3 4 8
24 21 25 25 28 26 23 16 12 7 6 11 10 9 7 7 9 7 6 6 7 11
25 23 26 27 29 23 17 8 9 7 12 13 11 10 9 10 9 9 8 8 9 12
25 27 28 28 24 18 13 9 7 13 14 12 14 13 11 12 12 12 11 10 12 13
26 27 24 17 12 3 3 9 11 12 13 14 14 13 14 15 14 14 13 12 14 15
27 21 16 9 10 11 10 11 11 12 11 11 13 15 17 17 17 14 13 15 16 17
25 17 14 11 13 14 12 9 7 7 9 11 13 14 15 16 15 14 16 16 17 18
15 13 15 14 12 8 5 4 7 9 8 8 10 12 14 14 15 17 17 17 17 18
16 16 14 11 6 2 3 6 7 8 9 11 12 13 14 17 19 19 19 19 20 20
18 14 7 2 2 2 6 9 9 10 11 13 15 16 16 16 18 20 20 20 22 22
11 5 3 2 7 9 10 11 11 12 13 16 18 18 19 19 20 21 21 22 22 21
4 3 5 8 10 10 11 12 12 13 15 17 20 19 20 19 20 22 24 23 21 21
2 2 6 10 11 13 14 15 16 18 19 21 25 23 22 20 22 24 25 27 24 22
3 7 9 12 14 15 17 19 22 25 26 26 26 27 24 21 23 26 21 21 28 25

GFSNIL_925_spd_069.txt.gz
Wind_Speed
27 26 24 25 28 31 27 23 23 22 18 9 9 9 11 7 5 7 9 7 7 6
30 27 28 28 28 26 24 23 23 17 10 11 11 13 9 8 8 9 9 9 10 9
30 29 27 24 22 22 21 19 15 11 10 10 13 10 11 10 10 11 11 12 13 12
26 25 21 19 22 24 22 15 11 14 8 14 12 12 12 13 13 14 15 15 14 14
21 19 17 21 25 20 17 16 13 11 11 13 13 13 14 16 17 16 16 16 14 15
15 18 24 25 22 19 10 10 10 10 12 11 13 14 16 17 18 18 18 16 15 15
19 23 21 15 12 9 10 7 9 7 8 12 12 13 13 15 16 17 16 17 18 16
23 18 13 12 12 10 8 8 5 7 11 11 10 10 11 13 14 15 16 18 19 19
16 15 19 15 10 9 6 2 9 13 10 10 11 11 12 14 15 17 19 21 21 19
23 21 16 11 8 4 8 16 11 9 10 12 14 14 16 17 19 20 22 22 21 19
21 16 13 6 6 10 8 9 9 11 11 13 16 15 17 19 21 19 22 22 22 22
14 12 3 5 6 7 8 10 12 13 14 17 20 20 20 21 20 19 21 22 22 24
8 4 1 3 5 7 10 12 14 17 20 22 25 25 25 25 23 24 24 22 22 26
5 3 2 4 6 9 11 14 18 23 26 27 28 31 32 32 32 27 27 25 24 24

GFSNIL_925_spd_072.txt.gz
Wind_Speed
23 22 22 23 21 24 21 19 18 18 17 16 15 9 10 10 12 10 9 9 9 9
24 24 23 20 21 20 19 17 18 19 18 19 12 11 12 12 12 10 9 9 10 12
23 22 23 19 18 17 17 17 20 19 17 12 12 13 13 13 12 11 10 11 12 14
19 18 18 16 16 17 17 20 21 17 13 13 12 13 13 13 13 13 13 14 15 17
13 13 14 15 17 18 19 20 20 16 10 10 11 11 13 14 14 15 16 17 18 19
18 16 14 18 20 23 21 15 8 7 9 10 10 12 14 15 15 17 18 19 20 21
16 23 24 25 19 17 13 10 11 9 9 8 10 13 13 13 15 17 18 20 21 22
20 27 31 23 21 15 14 12 8 10 8 9 12 12 11 12 15 17 18 20 21 23
26 26 21 20 20 17 11 7 9 8 12 11 11 13 14 14 15 18 20 23 24 24
24 22 20 18 15 13 9 8 11 11 9 10 12 15 14 16 16 19 22 24 26 26
23 25 18 14 9 7 9 8 8 8 9 11 12 15 16 18 19 22 24 25 26 27
25 20 12 6 6 7 5 6 7 8 9 11 14 16 19 21 21 24 27 28 29 30
15 11 7 5 5 3 4 5 6 8 10 13 17 18 19 21 22 25 27 30 32 32
10 7 5 4 3 2 4 6 7 8 11 14 14 16 17 19 18 21 26 28 29 29

GFSNIL_925_spd_078.txt.gz
Wind_Speed
28 28 25 28 28 24 22 25 26 28 24 25 23 22 19 13 11 7 6 8 7 9
34 27 24 25 20 22 22 22 25 28 26 25 25 23 19 7 8 11 10 10 11 12
34 30 25 22 24 23 22 21 24 27 26 26 24 22 12 6 7 5 10 12 12 14
29 30 28 25 23 25 21 20 16 22 23 20 17 14 6 9 7 12 11 16 16 16
32 28 28 25 25 25 25 26 27 28 22 16 17 15 11 11 12 13 16 14 18 19
26 28 27 26 25 25 29 28 25 23 23 23 18 13 15 16 15 16 18 15 14 15
28 28 28 29 26 27 26 25 22 21 23 19 13 15 16 17 17 14 11 12 13 15
26 27 27 27 27 27 24 25 21 21 19 15 15 15 17 14 9 7 8 12 14 17
24 25 25 23 24 24 27 21 18 19 16 14 16 15 11 12 11 12 13 15 17 19
24 24 24 27 27 27 22 19 17 15 14 13 10 9 7 8 10 11 13 15 18 21
22 23 25 26 23 21 19 17 15 13 9 6 6 6 5 5 7 10 12 15 18 20
24 25 24 20 19 17 16 13 8 7 7 6 4 5 3 5 6 9 13 18 20 19
22 21 20 19 17 13 11 11 11 9 8 6 3 2 5 9 9 11 13 14 17 21
22 20 17 13 12 11 10 11 9 7 4 1 2 3 7 10 8 9 15 19 20 21

GFSNIL_925_spd_084.txt.gz
Wind_Speed
41 38 39 40 39 40 40 43 40 38 36 33 32 34 35 34 30 24 17 16 12 12
39 43 39 40 44 43 42 42 42 40 35 34 31 32 34 32 28 24 21 17 16 16
42 47 44 42 45 45 43 40 39 36 32 34 33 29 32 32 30 24 23 22 20 23
39 45 45 46 45 45 44 38 35 29 29 33 31 31 34 34 30 29 26 24 22 22
37 38 40 42 35 33 28 29 30 28 28 30 34 34 37 33 33 28 27 23 22 21
36 36 37 36 37 34 19 39 33 30 33 34 39 42 40 36 30 28 23 21 20 17
35 37 39 35 30 26 38 40 36 36 36 37 39 40 36 31 25 20 18 16 18 16
30 29 33 35 33 32 35 37 35 36 33 32 33 30 32 26 20 18 16 15 13 12
25 27 30 28 23 27 28 29 32 31 31 33 28 24 21 17 18 17 17 18 13 10
19 20 20 20 22 25 27 28 29 29 28 25 23 18 16 14 14 18 14 10 9 7
20 22 22 23 24 25 26 26 27 24 21 20 15 16 14 16 17 13 9 7 6 6
22 23 21 21 23 23 24 24 21 20 19 20 15 17 20 18 15 11 8 4 5 8
18 18 19 20 21 23 24 21 20 19 18 18 23 19 16 12 9 7 4 4 6 7
15 16 17 19 22 22 21 20 20 21 22 21 18 14 7 5 3 1 2 4 7 9

GFSNIL_925_spd_090.txt.gz
Wind_Speed
37 35 35 35 33 34 36 37 37 36 35 37 37 36 36 37 41 39 39 40 36 35
34 35 32 34 35 36 38 38 37 37 39 39 38 39 38 38 39 37 39 40 38 36
36 37 38 35 35 37 39 39 39 39 39 38 38 37 37 36 35 34 37 38 38 38
38 39 38 39 42 40 39 41 42 42 42 43 42 38 35 33 31 29 36 38 39 41
34 36 39 42 41 38 41 43 45 42 43 37 38 37 32 32 28 31 38 40 38 38
35 33 38 38 37 40 42 44 42 40 35 38 37 39 34 33 37 47 42 38 39 39
35 38 36 36 36 38 40 38 38 38 35 39 37 36 36 36 35 34 33 34 37 35
34 31 31 34 36 38 37 36 37 36 38 37 33 35 33 34 35 35 32 30 28 25
30 31 33 34 36 37 34 33 33 35 36 33 30 34 35 36 34 34 32 30 24 20
27 30 32 31 29 30 33 34 34 34 29 28 29 30 31 29 27 24 22 22 19 18
20 19 19 20 23 26 26 25 21 19 18 17 15 15 19 20 16 17 17 17 16 14
12 14 15 13 12 10 9 6 6 7 8 9 11 12 16 19 20 18 18 16 15 12
9 9 9 8 8 8 9 12 12 14 13 16 15 11 10 13 18 22 20 13 10 6
15 14 12 12 11 11 13 15 18 21 19 18 16 15 15 15 15 14 13 10 9 6

GFSNIL_925_spd_093.txt.gz
Wind_Speed
29 26 25 27 26 26 27 29 28 33 31 30 31 31 31 32 34 34 37 40 43 39
31 30 27 26 27 27 28 29 31 34 32 33 34 34 32 34 35 35 39 40 40 40
31 32 31 29 29 28 27 28 28 31 32 32 34 32 32 34 35 35 40 39 37 36
32 32 33 34 33 32 30 29 28 28 30 33 33 36 35 35 36 39 41 40 39 38
31 33 34 37 36 33 36 34 33 29 28 28 31 34 32 36 37 40 40 40 36 34
33 36 38 35 31 34 38 33 30 28 29 32 35 39 41 42 39 40 43 40 37 38
33 33 30 32 31 31 30 27 27 28 31 34 34 37 37 36 36 37 37 36 37 40
27 26 25 27 27 26 25 27 27 29 31 33 32 35 33 32 34 33 35 35 34 36
24 22 22 23 23 23 23 23 24 29 31 32 35 38 39 35 29 30 31 26 24 26
19 20 19 18 17 18 19 21 25 28 27 27 24 25 26 25 26 23 20 19 18 15
14 14 14 13 14 15 15 13 10 8 7 8 9 11 12 15 14 9 9 11 14 15
7 8 8 8 7 6 6 7 8 8 7 7 8 3 6 7 13 16 17 15 13 13
11 12 14 13 13 13 14 15 15 17 16 16 15 10 10 12 17 20 19 17 16 15
19 18 16 16 15 15 17 19 21 23 22 22 20 20 19 16 17 17 15 13 12 10

GFSNIL_925_spd_096.txt.gz
Wind_Speed
25 22 24 25 25 23 23 23 24 26 28 33 32 30 29 28 22 21 24 27 28 29
24 25 26 24 24 23 22 21 20 21 24 25 28 29 25 24 26 25 27 27 28 29
28 27 27 28 28 26 24 23 23 26 25 28 28 26 26 28 27 27 29 28 29 29
30 31 31 30 29 29 26 26 27 28 28 30 32 31 31 32 30 29 30 30 30 32
29 30 32 33 32 30 31 29 30 30 31 32 33 34 33 32 31 31 32 34 34 38
30 31 30 30 30 28 26 27 27 28 29 29 29 29 29 30 34 38 35 32 33 36
30 29 27 27 27 27 27 26 27 28 29 29 28 28 28 29 32 32 31 30 36 39
25 24 24 24 24 24 25 27 27 26 26 26 26 26 28 29 33 34 34 33 33 30
22 22 22 22 22 23 25 24 23 23 23 24 25 30 33 33 26 25 25 24 24 24
19 19 19 19 20 21 20 19 20 21 20 15 13 17 17 14 14 16 12 8 7 5
13 13 12 13 12 11 9 8 7 7 5 4 7 6 5 4 2 5 7 7 8 10
9 10 11 11 11 12 14 15 16 16 15 15 15 9 7 7 13 17 18 17 16 15
21 22 22 19 19 20 22 24 23 25 25 25 24 19 16 16 18 20 20 18 16 14
30 29 27 26 25 26 27 28 29 31 30 30 27 25 23 20 20 17 15 13 12 12

GFSNIL_925_spd_099.txt.gz
Wind_Speed
22 22 23 22 20 23 25 27 30 36 32 28 26 25 21 24 27 25 23 23 22 21
24 24 24 26 25 24 24 25 26 35 34 33 33 31 34 28 28 28 26 24 25 26
26 25 25 27 28 26 24 26 26 27 30 28 28 29 29 28 26 26 26 27 26 27
25 23 24 26 25 24 24 25 25 28 26 27 27 26 26 27 25 27 29 28 29 30
25 25 25 25 26 25 26 25 24 24 24 25 26 27 30 31 30 30 30 32 32 32
26 26 27 27 27 26 26 26 27 27 27 27 29 29 31 31 32 32 32 31 31 30
26 26 25 25 26 27 27 26 27 28 27 28 28 28 28 30 30 29 28 27 32 36
25 24 23 23 23 23 25 25 24 23 24 23 24 24 26 26 27 27 28 28 19 15
24 23 23 23 22 21 21 21 20 20 20 20 15 22 25 23 22 20 10 6 5 7
23 22 21 20 20 20 20 18 10 7 6 4 4 6 7 6 1 2 7 7 8 10
20 20 19 16 14 13 12 12 13 13 13 14 15 12 11 8 12 15 16 16 17 16
17 16 20 22 22 22 24 24 24 23 22 22 21 16 16 15 19 22 22 20 18 16
23 24 27 26 27 27 29 32 30 33 32 30 28 23 23 22 21 22 18 16 16 18
29 32 31 32 31 33 34 35 33 33 32 32 30 26 24 21 20 16 13 12 12 14

GFSNIL_925_spd_102.txt.gz
Wind_Speed
22 23 25 30 30 30 30 32 35 39 33 31 32 32 22 31 30 26 25 23 22 24
22 21 23 24 27 28 26 30 33 34 34 34 31 27 32 26 25 24 26 27 28 29
23 22 24 22 25 29 30 27 28 36 38 38 31 34 31 32 31 26 26 25 27 32
26 25 26 25 25 25 27 30 30 35 39 39 37 35 33 33 29 28 29 29 29 34
25 27 27 26 30 28 28 30 30 31 34 34 33 32 30 29 26 29 30 29 30 32
27 25 27 27 26 30 28 27 29 29 31 30 30 31 31 30 30 31 31 31 31 31
29 28 26 27 26 24 25 25 26 25 24 24 23 24 27 28 29 30 31 29 22 18
29 28 27 28 28 29 27 28 26 25 26 24 24 24 26 23 21 12 6 3 3 4
26 27 26 26 27 25 25 23 20 22 19 15 9 8 18 18 10 6 3 7 9 11
24 23 24 22 21 21 19 16 14 12 11 12 10 8 2 7 8 12 16 16 17 18
23 22 23 22 23 22 22 21 21 20 21 22 21 19 19 20 22 24 24 22 21 21
22 25 28 29 28 28 31 29 28 27 27 29 26 24 25 26 28 29 27 24 23 20
30 31 32 31 31 31 36 37 36 36 34 33 31 26 26 26 26 27 23 22 21 23
36 36 33 35 33 35 37 39 38 38 35 34 31 27 25 24 25 22 21 20 21 20

GFSNIL_925_spd_105.txt.gz
Wind_Speed
20 23 22 24 25 28 31 33 36 35 31 29 26 26 26 25 26 25 33 32 24 25
23 24 23 22 26 27 30 32 40 39 38 36 29 31 27 28 30 28 29 29 31 32
24 23 24 26 25 26 26 29 40 41 38 36 30 32 31 30 32 35 34 34 34 33
27 24 24 27 30 29 29 28 31 33 33 31 32 34 33 33 36 31 34 32 30 32
27 28 29 28 30 32 32 31 34 35 35 34 33 35 35 38 35 35 33 32 31 34
28 29 30 32 31 31 32 33 32 34 36 35 36 37 38 38 35 36 35 30 31 30
28 29 29 31 32 35 30 30 32 31 30 31 35 38 38 35 35 32 27 22 17 16
29 29 30 30 28 28 31 29 30 30 29 29 26 28 28 28 25 22 16 9 7 7
30 32 29 31 31 26 27 27 28 26 23 19 15 14 21 21 15 13 13 14 12 12
31 29 29 30 30 28 25 22 21 19 17 14 11 11 12 14 16 18 18 18 18 19
32 29 28 26 24 24 25 24 24 22 22 23 21 21 23 24 25 28 26 24 22 21
29 28 30 30 29 28 31 30 29 28 27 29 28 26 28 30 32 31 29 25 22 22
31 33 33 35 35 35 37 38 36 37 35 32 30 27 28 30 32 31 29 27 25 23
33 37 38 38 37 41 42 42 39 40 37 36 31 26 24 24 27 27 25 24 23 22

GFSNIL_925_spd_108.txt.gz
Wind_Speed
17 18 16 19 23 27 28 33 38 37 33 39 39 40 36 34 26 23 24 20 21 28
17 15 15 17 21 26 29 32 40 40 34 38 37 36 34 28 25 23 24 25 26 28
24 22 19 20 22 27 27 29 35 38 41 36 33 29 26 26 25 26 29 31 33 29
27 25 22 23 24 27 28 28 31 32 33 32 31 30 30 30 30 31 32 31 32 31
28 26 25 22 23 25 27 28 31 31 28 29 27 30 32 32 28 30 32 33 32 37
28 29 27 27 27 27 28 28 28 30 28 28 29 31 31 33 33 32 32 31 29 28
27 29 29 28 29 29 28 29 29 30 32 32 32 33 35 34 33 31 24 20 18 15
27 28 28 28 27 26 28 28 27 28 28 30 30 29 30 30 26 24 20 10 8 7
26 28 29 27 29 28 25 23 25 24 23 23 22 25 27 27 24 19 18 18 18 18
29 27 29 28 26 25 26 24 23 21 21 17 14 15 20 22 20 20 19 20 20 20
28 26 28 26 26 25 27 26 25 22 20 20 18 22 25 24 25 27 26 25 24 23
28 26 28 27 27 28 30 28 27 25 25 26 25 26 30 31 33 35 32 27 24 23
28 31 30 30 30 29 32 34 33 32 28 29 30 28 30 35 40 38 34 31 29 26
28 34 35 36 36 38 38 39 36 35 33 31 30 28 29 31 32 34 32 30 28 24

GFSNIL_925_spd_111.txt.gz
Wind_Speed
22 21 22 24 26 26 29 25 38 43 41 37 37 42 38 35 36 32 31 30 21 18
23 21 23 23 25 29 32 32 33 43 40 39 39 39 36 31 34 29 27 31 26 22
24 21 19 17 19 20 23 28 34 35 38 39 37 39 39 34 33 28 27 25 25 26
24 20 18 17 19 20 23 29 28 34 33 37 39 39 35 33 34 31 25 21 24 29
23 22 18 18 20 20 22 26 32 28 30 33 36 39 37 33 26 26 25 24 28 30
22 22 21 18 19 20 22 23 25 29 26 27 27 29 31 30 29 28 27 24 24 23
22 24 23 21 18 19 20 22 24 27 28 30 28 29 29 27 26 21 18 17 16 15
24 26 24 20 19 19 20 22 24 24 25 23 24 25 26 25 22 20 16 12 9 5
21 27 26 23 22 22 20 18 19 19 20 20 21 22 22 24 21 20 19 19 20 21
19 22 25 25 23 22 23 21 20 19 20 18 17 19 21 22 21 23 23 26 25 25
21 19 21 22 23 23 22 22 21 19 18 19 18 18 20 22 25 26 26 26 26 27
24 22 22 22 23 23 24 22 21 20 21 22 22 24 28 29 32 33 31 29 27 27
25 27 26 26 25 25 26 26 25 23 21 23 26 26 29 33 39 39 35 31 28 24
26 29 30 30 30 30 31 31 31 31 28 27 26 26 28 30 34 33 31 28 28 25

GFSNIL_925_spd_114.txt.gz
Wind_Speed
22 22 23 24 23 24 24 26 29 37 36 38 40 38 38 37 38 38 33 34 30 24
24 23 22 20 19 24 27 27 29 35 37 40 39 40 40 36 36 37 32 31 30 28
25 23 20 17 19 22 26 28 31 36 36 39 44 43 41 35 35 35 33 30 30 29
25 22 18 17 14 18 20 23 28 35 36 36 44 44 42 40 38 39 36 37 37 34
24 24 19 16 14 13 15 21 24 27 31 33 36 42 42 40 40 38 35 31 29 29
21 23 20 18 15 14 14 18 19 21 24 28 31 36 40 36 38 36 33 31 30 25
21 22 22 19 18 17 14 15 19 21 23 23 30 31 32 35 29 29 29 27 24 24
19 21 22 21 18 17 17 16 17 20 18 22 22 21 27 29 28 23 23 21 18 14
18 20 20 20 18 17 16 16 18 18 18 19 20 22 22 23 26 27 27 24 19 16
20 20 21 19 18 16 18 18 18 18 18 17 16 18 20 22 26 26 24 25 25 25
22 21 22 20 20 18 20 21 20 19 18 16 14 18 21 24 26 26 25 25 26 28
25 24 25 24 22 21 21 21 21 19 18 18 18 22 26 27 30 32 31 28 26 27
29 30 29 27 27 25 25 25 24 22 21 21 23 23 26 31 38 40 38 34 31 27
25 30 29 30 28 29 28 29 29 30 26 24 21 23 28 33 37 38 35 33 32 29

GFSNIL_925_spd_117.txt.gz
Wind_Speed
20 18 18 23 20 25 20 26 30 34 33 34 32 32 37 35 35 35 34 33 30 30
18 22 20 20 24 21 23 25 23 34 33 34 37 35 35 34 34 35 35 36 32 30
19 17 19 19 18 18 21 21 26 30 30 36 37 38 38 34 34 37 35 35 33 32
18 19 19 18 17 15 17 17 19 25 29 35 44 42 40 36 34 36 35 36 36 32
20 20 18 19 14 12 14 17 20 24 30 35 33 43 45 40 39 39 36 40 36 33
20 21 19 17 14 11 10 10 12 18 22 23 34 37 41 43 42 41 38 39 38 36
20 21 21 18 13 12 8 9 11 12 17 15 22 27 32 34 40 37 35 33 34 32
18 21 22 19 15 12 10 9 9 10 11 14 17 26 26 28 31 34 35 33 31 26
22 21 21 21 17 14 12 10 11 13 13 15 14 22 28 35 33 35 35 32 25 19
24 23 22 22 19 15 15 14 14 14 15 14 15 16 25 35 36 32 29 29 28 26
24 24 24 23 23 20 21 20 18 18 17 18 20 21 25 29 31 33 30 29 29 30
24 25 26 27 27 25 25 25 23 21 21 22 24 27 31 32 35 35 32 30 29 30
22 28 31 32 31 29 29 29 27 26 23 24 27 27 31 35 39 41 39 35 33 30
27 29 31 33 34 35 34 33 31 32 27 25 25 27 30 33 37 38 37 34 33 30

GFSNIL_925_spd_120.txt.gz
Wind_Speed
20 18 19 17 16 20 19 21 27 29 31 33 35 41 36 36 36 34 33 33 30 28
20 19 19 17 17 17 21 23 22 28 27 31 36 37 35 31 32 32 32 31 31 29
22 22 19 16 16 15 18 18 27 30 30 30 31 38 37 29 30 31 31 30 32 30
22 21 20 18 16 14 15 17 19 26 30 31 33 34 34 36 32 33 32 32 33 31
20 21 20 19 17 14 13 13 16 18 21 26 36 38 36 35 33 36 34 34 32 31
20 20 20 19 16 12 11 11 14 18 19 21 24 27 40 42 39 38 36 35 36 35
20 20 20 19 15 13 11 10 12 13 13 13 17 24 39 42 40 39 40 39 37 33
19 19 19 19 15 14 11 8 9 8 7 8 10 16 31 32 34 31 28 30 32 33
20 20 20 19 16 14 13 10 10 8 8 6 7 13 20 27 27 29 33 35 31 28
21 20 21 20 18 17 17 15 14 14 14 15 16 16 24 27 31 36 33 34 34 31
22 20 21 21 20 23 22 21 20 18 19 21 23 21 31 36 35 35 33 31 32 35
24 21 20 24 27 26 27 25 22 21 24 26 27 30 33 38 39 37 33 31 31 34
25 23 24 28 30 28 30 29 27 25 24 28 32 33 38 39 43 40 38 35 34 32
26 30 31 30 31 33 33 32 30 31 26 27 29 30 34 39 41 41 36 34 33 32

GFSNIL_925_spd_123.txt.gz
Wind_Speed
18 18 18 19 18 18 19 20 19 22 24 25 32 33 40 43 41 43 34 33 33 24
20 19 18 16 19 18 19 18 21 23 26 27 32 33 33 32 35 34 38 35 31 27
22 20 16 18 18 18 17 20 24 23 26 27 31 34 32 30 34 34 35 34 35 29
20 25 21 19 19 17 18 18 20 26 28 29 30 33 35 29 35 32 30 30 31 30
22 21 20 18 17 15 15 15 17 25 28 30 32 35 36 33 31 32 29 29 29 31
20 21 21 22 20 20 17 15 18 20 20 24 29 33 36 37 36 35 32 32 32 33
18 20 20 19 20 19 16 15 14 14 15 16 26 32 33 33 34 37 38 38 35 33
19 21 19 19 21 18 16 15 12 12 13 13 17 23 29 35 38 39 36 34 35 33
20 21 20 23 22 21 18 13 12 11 12 11 13 17 20 26 32 31 33 37 33 34
21 19 23 24 22 19 16 17 17 14 13 10 9 14 18 21 27 31 32 34 34 34
21 24 22 23 22 20 21 21 20 17 16 16 17 19 24 28 30 31 29 30 29 33
20 24 22 21 27 26 25 23 21 20 21 21 23 25 28 31 33 34 30 28 28 32
27 22 19 28 29 26 27 26 25 24 22 22 27 28 33 37 40 39 38 33 31 31
27 15 33 31 32 32 30 29 28 29 25 25 26 25 28 35 39 41 36 34 33 31

GFSNIL_925_spd_126.txt.gz
Wind_Speed
20 19 22 20 22 21 21 23 24 25 22 28 30 34 36 36 34 39 48 34 35 33
18 21 20 18 23 22 24 24 23 24 25 25 27 29 28 32 33 36 42 37 38 38
16 21 21 18 25 22 20 22 23 22 23 23 25 25 29 30 31 36 38 34 37 39
18 20 24 18 19 22 22 25 24 22 24 26 27 26 30 28 28 31 38 35 39 36
19 20 21 24 20 21 24 22 24 25 25 26 27 27 30 28 30 28 32 34 29 31
18 20 22 23 24 20 23 20 20 26 28 28 27 29 31 31 32 33 35 35 40 38
21 20 22 23 24 23 21 22 21 23 27 30 30 30 32 32 31 32 32 34 35 38
25 20 19 23 25 25 23 20 18 17 20 25 32 32 32 33 32 32 31 35 40 34
26 23 19 20 23 25 23 20 17 15 16 17 17 28 32 33 34 34 36 33 33 35
27 24 18 22 24 25 23 20 18 18 19 17 16 19 20 24 27 28 29 35 41 34
24 25 20 20 24 23 25 25 21 17 15 13 11 14 17 22 19 18 21 29 34 43
25 27 24 21 28 30 28 24 22 19 17 17 17 17 18 22 24 24 22 21 25 33
26 27 26 19 32 32 30 27 25 21 18 20 22 22 24 28 32 33 31 27 26 27
25 27 24 15 33 34 33 30 27 27 23 21 21 20 23 26 34 37 33 32 30 28